Content
SEND FEEDBACK

Canada Flag

PELEE ISLAND, ONTARIO


Home > North America > Canada > Ontario
Elevation: 571 feet     Latitude: 41 46N     Longitude: 082 40W

WEATHER
 
SELECT A DAY
Number of Records: 134,709;   Date Range: 12/10/00 - 3/22/16
 
SHARE

PRINT THIS DATA

[ ← Previous Day ]
WEATHER ALMANAC - APRIL 8, 2014
[ Next Day → ]
[ °C ]   °F
We're sorry. There is no daily almanac available for Pelee Island, Ontario on April 8, 2014.
WEATHER BY HOUR - APRIL 8, 2014
[ °C ]   °F
Local TimeTemperatureDewpointHumidityBarometerVisibilityWind DirectionWind SpeedGust SpeedPrecipitationEventsConditions
4:00 AM40.6 °F39.4 °F95 %29.45 inNW (320°)8.1 mph0.06 in
5:00 AM40.6 °F39.2 °F95 %29.48 inWNW (300°)9.2 mph0.02 in
6:00 AM39.7 °F34.7 °F82 %29.51 inWNW (300°)8.1 mph0.01 in
7:00 AM39.0 °F33.6 °F81 %29.54 inWNW (300°)8.1 mph
8:00 AM40.0 °F33.0 °F68 %29.58 inWNW (290°)9.2 mph
8:00 AM39.6 °F33.1 °F78 %29.58 inWNW (290°)9.2 mph
9:00 AM41.2 °F34.2 °F76 %29.60 inWest (280°)8.1 mph
10:00 AM43.7 °F33.8 °F68 %29.62 inWNW (290°)9.2 mph
11:00 AM46.4 °F33.4 °F61 %29.64 inWNW (290°)9.2 mph
12:00 PM49.5 °F34.7 °F57 %29.66 inNW (310°)6.9 mph
1:00 PM51.3 °F33.8 °F51 %29.66 inNNW (340°)4.6 mph0.12 in
2:00 PM54.1 °F32.9 °F45 %29.66 inNNW (330°)4.6 mph0.80 in
2:00 PM54.0 °F33.0 °F32 %29.66 inNNW (330°)4.6 mph
3:00 PM54.9 °F37.9 °F53 %29.66 inWSW (240°)10.4 mph0.09 in
4:00 PM46.6 °F34.2 °F62 %29.59 inENE (60°)8.1 mph1.24 in
5:00 PM55.2 °F34.0 °F45 %29.66 inSW (230°)9.2 mph
6:00 PM54.0 °F33.3 °F46 %29.68 inSSW (210°)8.1 mph0.15 in
7:00 PM52.0 °F33.4 °F49 %29.69 inSSW (210°)5.8 mph0.27 in
8:00 PM48.0 °F37.0 °F54 %29.71 inSW (230°)4.6 mph
8:00 PM48.0 °F36.7 °F65 %29.71 inSW (230°)4.6 mph0.71 in
9:00 PM45.3 °F38.1 °F76 %29.73 inWest (270°)3.5 mph
10:00 PM51.1 °F35.6 °F55 %29.75 inWest (280°)4.6 mph
11:00 PM46.0 °F35.8 °F67 %29.78 inNNE (30°)6.9 mph
Hourly data recorded from CXHA, located miles away from Pelee Island, Ontario




STORIES FROM OUR PARTNERS